Location: Lecco
(45.8566°N, 9.3977°E)
Time: 07:43:56
(UTC+02:00)

Altair - Pass Details

Date: 18 August 2020
Orbit: 1501 x 1682 km, 47.2° (Epoch: 25 September)

Event Time Altitude Azimuth Distance (km) Brightness Sun altitude
Rises 23:13:31 0° 180° (S) 4,886 - -24.3°
Reaches altitude 10° 23:18:08 10° 163° (SSE) 3,876 - -24.7°
Maximum altitude 23:23:55 17° 126° (SE) 3,286 - -25.3°
Drops below altitude 10° 23:29:35 10° 89° (E) 3,804 - -25.8°
Exits shadow 23:29:51 - 88° (E) 3,851 9.3 -25.8°
Sets 23:34:00 0° 72° (ENE) 4,758 10.0 -26.2°
